Terminal Aerodrome Forecast
Issued by NWS Cleveland, OH

Home | Current Version | Previous Version | Graphics & Text | Print | Product List | Glossary Off
Versions: 1 2 3 4 5 6 7 8 9 10 11 12 13 14 15 16 17 18 19 20 21 22 23 24 25 26 27 28 29 30 31 32 33 34 35 36

000
FTUS41 KCLE 051400 AAA
TAFCLE
TAF AMD
KCLE 051411Z 0514/0618 03012KT P6SM SCT015 OVC150
      TEMPO 0514/0516 BKN015 OVC150
     FM051600 33010KT P6SM BKN035
     FM060100 VRB03KT P6SM FEW035
     FM061200 VRB02KT P6SM SKC=

USA.gov is the U.S. government's official web portal to all federal, state and local government web resources and services.